Вернуться в каталог

METOP-B

АктивенПогодаSSO
NORAD 38771·PAYLOAD·🇪🇺 EU

Запущен Sep 17, 2012 с Baikonur Cosmodrome

Loading…

Ближайшие Пролёты (ближайшие 24 часа)

TLE

СвежийSource: Space-Track

Эпоха: Sep 14, 2026, 22:30 UTC

1 38771U 12049A   26257.93752210  .00000069  00000-0  51252-4 0  9997
2 38771  98.6415 307.6080 0003449  90.2135 269.9437 14.21459141726013

Отслеживайте METOP-B в реальном времени с AllMySat

Download on the App Store